KB4ID Weather Reports


Display with metric or nautical units.
time (UTC)temp
F
wind
direction
speed
MPH
gust
MPH
rain 1hr
in
rain 24hr
in
rain mn
in
humidity
%
barometer
mb
20211020130405 45 80 0.0 0.0 0.00 0.00 0.00 100 1023.7
20211020125405 44 80 0.0 0.0 0.00 0.00 0.00 99 1023.3
20211020124407 44 80 0.0 0.0 0.00 0.00 0.00 99 1023.3
20211020123405 44 80 0.0 0.0 0.00 0.00 0.00 99 1023.3
20211020121405 44 80 0.0 0.0 0.00 0.00 0.00 98 1023.0
20211020120405 44 80 0.0 0.0 0.00 0.00 0.00 98 1023.0
20211020115406 44 80 0.0 0.0 0.00 0.00 0.00 98 1022.6
20211020114405 44 80 0.0 0.0 0.00 0.00 0.00 98 1022.6
20211020113405 44 80 0.0 0.0 0.00 0.00 0.00 98 1022.6
20211020110404 44 80 0.0 0.0 0.00 0.00 0.00 98 1022.3
20211020105408 45 80 0.0 0.0 0.00 0.00 0.00 98 1022.3
20211020103404 45 80 0.0 0.0 0.00 0.00 0.00 98 1022.3
20211020102406 45 80 0.0 0.0 0.00 0.00 0.00 98 1022.3
20211020101405 45 80 0.0 0.0 0.00 0.00 0.00 98 1022.0
20211020100407 45 80 0.0 0.0 0.00 0.00 0.00 98 1022.0
20211020095406 45 80 0.0 0.0 0.00 0.00 0.00 98 1022.0
20211020094408 45 80 0.0 0.0 0.00 0.00 0.00 98 1022.0
20211020091404 46 80 0.0 0.0 0.00 0.00 0.00 98 1021.6
20211020085405 46 80 0.0 0.0 0.00 0.00 0.00 98 1022.0
20211020083404 47 80 0.0 0.0 0.00 0.00 0.00 98 1021.6
20211020081406 47 80 0.0 0.0 0.00 0.00 0.00 98 1021.3
20211020080405 47 80 0.0 0.0 0.00 0.00 0.00 98 1021.6
20211020075406 47 80 0.0 0.0 0.00 0.00 0.00 98 1021.6
20211020074405 47 80 0.0 0.0 0.00 0.00 0.00 98 1021.6
20211020070404 47 80 0.0 0.0 0.00 0.00 0.00 98 1021.6
20211020065405 47 80 0.0 0.0 0.00 0.00 0.00 98 1021.6
20211020063405 47 80 0.0 0.0 0.00 0.00 0.00 97 1021.6
20211020062407 47 80 0.0 0.0 0.00 0.00 0.00 97 1021.6
20211020061404 47 80 0.0 0.0 0.00 0.00 0.00 98 1021.6
20211020060407 47 80 0.0 0.0 0.00 0.00 0.00 97 1021.6
20211020052407 47 80 0.0 0.0 0.00 0.00 0.00 97 1021.6
20211020050410 47 80 0.0 0.0 0.00 0.00 0.00 97 1022.0
20211020043409 48 80 0.0 0.0 0.00 0.00 0.00 96 1021.6
20211020042409 48 80 0.0 0.0 0.00 0.00 0.00 96 1022.0
20211020041409 48 80 0.0 0.0 0.00 0.00 0.00 96 1022.0
20211020034410 49 80 0.0 0.0 0.00 0.00 0.00 95 1022.0
20211020032411 49 80 0.0 0.0 0.00 0.00 0.00 96 1022.0
20211020031411 49 80 0.0 0.0 0.00 0.00 0.00 96 1022.0
20211020030406 49 80 0.0 0.0 0.00 0.00 0.00 96 1022.0
20211020025406 50 80 0.0 0.0 0.00 0.00 0.00 95 1021.6
20211020024406 50 80 0.0 0.0 0.00 0.00 0.00 95 1021.6
20211020023406 50 80 0.0 0.0 0.00 0.00 0.00 95 1021.6
20211020022406 50 80 0.0 0.0 0.00 0.00 0.00 95 1021.6
20211020021408 50 80 0.0 0.0 0.00 0.00 0.00 95 1021.6
20211020013407 51 80 0.0 0.0 0.00 0.00 0.00 93 1021.6
20211020012406 51 80 0.0 0.0 0.00 0.00 0.00 93 1021.3
20211020010407 52 80 0.0 0.0 0.00 0.00 0.00 92 1021.3
20211020004408 52 80 0.0 0.0 0.00 0.00 0.00 91 1021.3
20211020002405 53 80 0.0 0.0 0.00 0.00 0.00 90 1021.3
20211020000406 54 80 0.0 0.0 0.00 0.00 0.00 89 1021.3
20211019234406 55 80 0.0 0.0 0.00 0.00 0.00 86 1021.3
20211019232406 57 80 0.0 0.0 0.00 0.00 0.00 84 1020.9
20211019231405 57 80 0.0 0.0 0.00 0.00 0.00 83 1021.3
20211019230406 58 80 0.0 0.0 0.00 0.00 0.00 82 1020.9
20211019225405 59 80 0.0 0.0 0.00 0.00 0.00 81 1020.9
20211019223406 61 80 0.0 0.0 0.00 0.00 0.00 78 1020.6
20211019221406 62 80 0.0 0.0 0.00 0.00 0.00 76 1020.6
20211019220408 63 80 0.0 0.0 0.00 0.00 0.00 75 1020.6
20211019211407 66 80 0.0 0.0 0.00 0.00 0.00 66 1020.6
20211019210406 66 80 0.0 0.0 0.00 0.00 0.00 66 1020.6
20211019204407 68 80 0.0 0.0 0.00 0.00 0.00 61 1020.3
20211019203405 68 53 0.0 0.0 0.00 0.00 0.00 60 1020.3
20211019202405 69 54 0.0 0.0 0.00 0.00 0.00 57 1020.3
20211019201407 69 53 0.0 0.0 0.00 0.00 0.00 43 1020.6
20211019200408 69 70 0.0 0.0 0.00 0.00 0.00 46 1020.6
20211019194405 70 54 0.0 0.0 0.00 0.00 0.00 47 1020.6
20211019190406 70 98 0.0 0.0 0.00 0.00 0.00 58 1020.9
20211019184406 70 111 0.0 0.0 0.00 0.00 0.00 48 1020.9
20211019183406 70 65 0.0 0.0 0.00 0.00 0.00 48 1021.3
20211019175406 71 63 0.0 0.0 0.00 0.00 0.00 48 1022.0
20211019174406 71 57 0.0 0.0 0.00 0.00 0.00 51 1022.0
20211019172405 71 64 0.0 0.0 0.00 0.00 0.00 50 1022.3
20211019170406 70 34 0.0 0.0 0.00 0.00 0.00 50 1022.6
20211019165409 70 61 0.0 0.0 0.00 0.00 0.00 58 1022.6
20211019163409 69 88 0.0 0.0 0.00 0.00 0.00 55 1023.0
20211019161406 68 29 0.0 0.0 0.00 0.00 0.00 59 1023.3
20211019160405 67 90 0.0 0.0 0.00 0.00 0.00 61 1023.3
20211019155408 65 90 0.0 0.0 0.00 0.00 0.00 71 1023.3
20211019152406 59 93 0.0 0.0 0.00 0.00 0.00 81 1023.7
20211019150406 56 93 0.0 0.0 0.00 0.00 0.00 90 1023.7
20211019145406 55 49 0.0 0.0 0.00 0.00 0.00 99 1023.7
20211019144408 53 49 0.0 0.0 0.00 0.00 0.00 100 1024.0
20211019142406 51 48 0.0 0.0 0.00 0.00 0.00 100 1023.7
20211019141405 49 49 0.0 0.0 0.00 0.00 0.00 100 1023.7
20211019140406 48 48 0.0 0.0 0.00 0.00 0.00 100 1023.7
20211019135406 47 49 0.0 0.0 0.00 0.00 0.00 100 1023.7